BAW903 EDDF-EGLL

Flight info

Callsign BAW903
Flight time 1h 8m
Altitude 40000
Route OBOKA5G/25C OBOKA Z29 TORNU DCT ABNED L980 LOGAN
Aircraft B772/H-SDE2E3FGHIJ5LORVWXY/LB1D1

Departure

Time 2026-05-04 10:11
Airport Frankfurt Main Airport (EDDF)

Arrival

Time 2026-05-04 11:19
Airport London Heathrow Airport (EGLL)
Time Latitude Longitude Altitude Speed Heading
2026-05-04 09:34 50.04595 8.57053 368 ft 0 kts 59°
2026-05-04 09:58 50.04590 8.57038 362 ft 4 kts 59°
2026-05-04 10:00 50.04616 8.56914 360 ft 2 kts 191°
2026-05-04 10:04 50.04612 8.56912 368 ft 4 kts 191°
2026-05-04 10:04 50.04571 8.56900 368 ft 6 kts 192°
2026-05-04 10:04 50.04528 8.56885 365 ft 6 kts 195°
2026-05-04 10:05 50.04471 8.56863 369 ft 14 kts 192°
2026-05-04 10:05 50.04353 8.56830 367 ft 11 kts 190°
2026-05-04 10:05 50.04286 8.56856 369 ft 11 kts 126°
2026-05-04 10:05 50.04292 8.56968 368 ft 11 kts 69°
2026-05-04 10:06 50.04319 8.57077 372 ft 11 kts 69°
2026-05-04 10:06 50.04346 8.57185 368 ft 11 kts 69°
2026-05-04 10:06 50.04374 8.57303 370 ft 15 kts 70°
2026-05-04 10:08 50.04602 8.58273 376 ft 16 kts 69°
2026-05-04 10:08 50.04642 8.58437 375 ft 15 kts 69°
2026-05-04 10:08 50.04649 8.58530 377 ft 8 kts 107°
2026-05-04 10:08 50.04618 8.58572 374 ft 1 kts 153°
2026-05-04 10:09 50.04608 8.58578 375 ft 2 kts 155°
2026-05-04 10:09 50.04585 8.58594 378 ft 4 kts 157°
2026-05-04 10:09 50.04558 8.58609 375 ft 4 kts 161°
2026-05-04 10:09 50.04507 8.58615 376 ft 10 kts 202°
2026-05-04 10:10 50.04488 8.58582 379 ft 0 kts 244°
2026-05-04 10:10 50.04484 8.58569 375 ft 12 kts 244°
2026-05-04 10:10 50.04356 8.58043 372 ft 94 kts 250°
2026-05-04 10:10 50.04038 8.56726 395 ft 163 kts 249°
2026-05-04 10:11 50.03622 8.54999 1193 ft 172 kts 248°
2026-05-04 10:11 50.03184 8.53208 2164 ft 187 kts 248°
2026-05-04 10:11 50.02741 8.51237 3212 ft 194 kts 256°
2026-05-04 10:11 50.02744 8.49048 3956 ft 216 kts 274°
2026-05-04 10:12 50.02929 8.46552 4485 ft 249 kts 276°
2026-05-04 10:12 50.03029 8.43744 4996 ft 275 kts 263°
2026-05-04 10:12 50.02721 8.40823 5227 ft 270 kts 257°
2026-05-04 10:12 50.02336 8.37993 5248 ft 265 kts 256°
2026-05-04 10:13 50.01961 8.35193 5205 ft 265 kts 257°
2026-05-04 10:13 50.01611 8.32409 5200 ft 261 kts 258°
2026-05-04 10:13 50.01289 8.29652 5191 ft 254 kts 262°
2026-05-04 10:13 50.01498 8.26973 5216 ft 251 kts 288°
2026-05-04 10:14 50.02218 8.24519 5277 ft 247 kts 292°
2026-05-04 10:14 50.02915 8.22189 5543 ft 234 kts 291°
2026-05-04 10:16 50.09490 8.04799 9912 ft 290 kts 306°
2026-05-04 10:16 50.10804 8.02338 10419 ft 304 kts 306°
2026-05-04 10:16 50.12191 7.99697 10718 ft 323 kts 306°
2026-05-04 10:16 50.13631 7.96935 11364 ft 333 kts 306°
2026-05-04 10:17 50.15098 7.94109 12145 ft 338 kts 306°
2026-05-04 10:17 50.16588 7.91222 12872 ft 348 kts 306°
2026-05-04 10:19 50.28883 7.71310 18730 ft 384 kts 335°
2026-05-04 10:19 50.31372 7.69725 19410 ft 389 kts 334°
2026-05-04 10:19 50.33871 7.68064 20175 ft 391 kts 333°
2026-05-04 10:19 50.36377 7.66357 20948 ft 394 kts 333°
2026-05-04 10:20 50.38901 7.64621 21661 ft 398 kts 332°
2026-05-04 10:20 50.41453 7.62862 22352 ft 403 kts 332°
2026-05-04 10:20 50.44037 7.61082 23051 ft 407 kts 332°
2026-05-04 10:20 50.46641 7.59288 23719 ft 411 kts 332°
2026-05-04 10:21 50.49270 7.57475 24311 ft 415 kts 332°
2026-05-04 10:21 50.51923 7.55645 24916 ft 418 kts 332°
2026-05-04 10:21 50.54593 7.53799 25500 ft 421 kts 332°
2026-05-04 10:21 50.57235 7.51795 26059 ft 421 kts 326°
2026-05-04 10:22 50.62155 7.46715 27185 ft 425 kts 320°
2026-05-04 10:22 50.64595 7.44061 27810 ft 429 kts 321°
2026-05-04 10:22 50.67089 7.41418 28390 ft 433 kts 321°
2026-05-04 10:23 50.69617 7.38804 28969 ft 437 kts 322°
2026-05-04 10:23 50.72174 7.36182 29530 ft 440 kts 321°
2026-05-04 10:25 50.82848 7.08040 32559 ft 440 kts 292°
2026-05-04 10:25 50.84246 7.03717 32970 ft 443 kts 292°
2026-05-04 10:25 50.85653 6.99352 33396 ft 446 kts 292°
2026-05-04 10:25 50.87063 6.94964 33785 ft 448 kts 292°
2026-05-04 10:26 50.88484 6.90549 34122 ft 451 kts 292°
2026-05-04 10:26 50.89913 6.86108 34414 ft 454 kts 292°
2026-05-04 10:26 50.91350 6.81641 34732 ft 456 kts 292°
2026-05-04 10:26 50.92788 6.77168 35108 ft 456 kts 292°
2026-05-04 10:27 50.94225 6.72687 35524 ft 455 kts 292°
2026-05-04 10:27 50.95658 6.68211 35916 ft 455 kts 292°
2026-05-04 10:27 50.97086 6.63738 36311 ft 454 kts 291°
2026-05-04 10:27 50.98512 6.59260 36677 ft 454 kts 291°
2026-05-04 10:28 50.99936 6.54780 37054 ft 454 kts 291°
2026-05-04 10:28 51.01358 6.50301 37434 ft 454 kts 291°
2026-05-04 10:28 51.02780 6.45812 37795 ft 454 kts 291°
2026-05-04 10:28 51.04181 6.41382 38150 ft 454 kts 291°
2026-05-04 10:29 51.05595 6.36900 38500 ft 454 kts 291°
2026-05-04 10:29 51.07009 6.32412 38800 ft 454 kts 291°
2026-05-04 10:29 51.08421 6.27923 39031 ft 454 kts 291°
2026-05-04 10:29 51.09831 6.23431 39243 ft 455 kts 291°
2026-05-04 10:30 51.11248 6.18913 39485 ft 455 kts 291°
2026-05-04 10:30 51.12659 6.14401 39717 ft 456 kts 291°
2026-05-04 10:30 51.13932 6.09793 39890 ft 454 kts 287°
2026-05-04 10:31 51.15418 6.01771 40014 ft 456 kts 279°
2026-05-04 10:32 51.22183 5.68375 39993 ft 456 kts 289°
2026-05-04 10:33 51.24680 5.59062 39994 ft 457 kts 289°
2026-05-04 10:33 51.27155 5.49691 39993 ft 458 kts 288°
2026-05-04 10:34 51.29595 5.40353 39996 ft 458 kts 288°
2026-05-04 10:34 51.32041 5.30935 40000 ft 459 kts 288°
2026-05-04 10:35 51.34486 5.21484 39991 ft 460 kts 288°
2026-05-04 10:35 51.36921 5.12039 39992 ft 459 kts 288°
2026-05-04 10:36 51.39348 5.02582 39994 ft 460 kts 288°
2026-05-04 10:36 51.41772 4.93098 39996 ft 460 kts 288°
2026-05-04 10:37 51.44186 4.83616 39994 ft 459 kts 288°
2026-05-04 10:37 51.46589 4.74134 39993 ft 459 kts 288°
2026-05-04 10:39 51.54932 4.40898 40001 ft 460 kts 288°
2026-05-04 10:40 51.57305 4.31352 40005 ft 460 kts 288°
2026-05-04 10:40 51.59675 4.21781 39995 ft 461 kts 288°
2026-05-04 10:41 51.62038 4.12192 39992 ft 461 kts 288°
2026-05-04 10:41 51.64395 4.02587 39997 ft 462 kts 288°
2026-05-04 10:42 51.66749 3.92955 39998 ft 462 kts 287°
2026-05-04 10:42 51.69098 3.83297 39999 ft 463 kts 287°
2026-05-04 10:43 51.71444 3.73614 40001 ft 464 kts 287°
2026-05-04 10:45 51.80749 3.34761 39545 ft 469 kts 287°
2026-05-04 10:45 51.81909 3.29876 39117 ft 463 kts 287°
2026-05-04 10:45 51.83054 3.25041 38667 ft 457 kts 286°
2026-05-04 10:45 51.83944 3.20166 38130 ft 447 kts 277°
2026-05-04 10:46 51.84384 3.15259 37677 ft 436 kts 270°
2026-05-04 10:46 51.84495 3.10424 37267 ft 426 kts 263°
2026-05-04 10:46 51.84251 3.05712 36850 ft 416 kts 259°
2026-05-04 10:46 51.83932 3.01090 36454 ft 410 kts 258°
2026-05-04 10:47 51.83608 2.96534 36052 ft 405 kts 258°
2026-05-04 10:47 51.83295 2.92042 35667 ft 400 kts 258°
2026-05-04 10:47 51.82993 2.87601 35268 ft 395 kts 258°
2026-05-04 10:47 51.82700 2.83206 34870 ft 391 kts 258°
2026-05-04 10:49 51.80718 2.53790 32040 ft 362 kts 256°
2026-05-04 10:49 51.80438 2.49767 31658 ft 358 kts 256°
2026-05-04 10:50 51.80161 2.45785 31274 ft 354 kts 256°
2026-05-04 10:51 51.78202 2.17699 28403 ft 359 kts 257°
2026-05-04 10:52 51.77973 2.13704 27988 ft 355 kts 258°
2026-05-04 10:52 51.77751 2.09794 27587 ft 352 kts 258°
2026-05-04 10:52 51.77526 2.05874 27188 ft 349 kts 258°
2026-05-04 10:54 51.75932 1.79364 24604 ft 330 kts 258°
2026-05-04 10:54 51.75705 1.75685 24241 ft 328 kts 258°
2026-05-04 10:56 51.74130 1.50763 21724 ft 309 kts 259°
2026-05-04 10:56 51.73906 1.47323 21379 ft 306 kts 259°
2026-05-04 10:56 51.73685 1.43925 21039 ft 304 kts 259°
2026-05-04 10:57 51.73463 1.40544 20705 ft 302 kts 259°
2026-05-04 10:57 51.73239 1.37160 20379 ft 305 kts 259°
2026-05-04 10:57 51.73009 1.33709 20045 ft 314 kts 260°
2026-05-04 10:57 51.72772 1.30170 19687 ft 318 kts 260°
2026-05-04 10:58 51.72536 1.26620 19316 ft 317 kts 260°
2026-05-04 10:58 51.72301 1.23096 18959 ft 315 kts 260°
2026-05-04 10:58 51.72067 1.19594 18604 ft 313 kts 261°
2026-05-04 10:58 51.71832 1.16110 18241 ft 311 kts 261°
2026-05-04 10:59 51.71601 1.12696 17841 ft 308 kts 261°
2026-05-04 10:59 51.71369 1.09276 17473 ft 306 kts 261°
2026-05-04 10:59 51.71137 1.05878 17114 ft 302 kts 261°
2026-05-04 10:59 51.70907 1.02525 16756 ft 299 kts 261°
2026-05-04 11:00 51.70678 0.99204 16415 ft 296 kts 261°
2026-05-04 11:01 51.69075 0.76223 13923 ft 296 kts 261°
2026-05-04 11:02 51.68843 0.72931 13510 ft 295 kts 261°
2026-05-04 11:02 51.68610 0.69662 13120 ft 293 kts 261°
2026-05-04 11:05 51.65489 0.26935 8322 ft 259 kts 261°
2026-05-04 11:06 51.65273 0.24064 7997 ft 258 kts 261°
2026-05-04 11:06 51.65059 0.21206 7713 ft 256 kts 261°
2026-05-04 11:06 51.64845 0.18379 7435 ft 253 kts 261°
2026-05-04 11:06 51.64633 0.15579 7181 ft 251 kts 262°
2026-05-04 11:08 51.65056 -0.02686 7051 ft 233 kts 270°
2026-05-04 11:10 51.63207 -0.19343 6633 ft 235 kts 206°
2026-05-04 11:12 51.53904 -0.13915 4646 ft 247 kts 129°
2026-05-04 11:12 51.52649 -0.12179 4298 ft 233 kts 159°
2026-05-04 11:12 51.51111 -0.11798 3979 ft 215 kts 190°
2026-05-04 11:12 51.49733 -0.12410 3668 ft 198 kts 208°
2026-05-04 11:13 51.48651 -0.13601 3381 ft 181 kts 230°
2026-05-04 11:13 51.48048 -0.15316 3203 ft 178 kts 254°
2026-05-04 11:13 51.47880 -0.17270 2957 ft 174 kts 266°
2026-05-04 11:13 51.47847 -0.19163 2849 ft 167 kts 268°
2026-05-04 11:16 51.47787 -0.36403 1042 ft 133 kts 270°
2026-05-04 11:16 51.47777 -0.37868 843 ft 132 kts 270°
2026-05-04 11:16 51.47777 -0.39860 612 ft 136 kts 273°
2026-05-04 11:17 51.47772 -0.41357 389 ft 132 kts 271°
2026-05-04 11:17 51.47764 -0.42344 254 ft 130 kts 272°
2026-05-04 11:19 51.47630 -0.46873 95 ft 12 kts 211°
2026-05-04 11:19 51.47586 -0.46955 95 ft 10 kts 255°
2026-05-04 11:19 51.47581 -0.47066 95 ft 10 kts 269°
2026-05-04 11:19 51.47580 -0.47178 94 ft 10 kts 270°
2026-05-04 11:20 51.47580 -0.47257 94 ft 3 kts 270°
2026-05-04 11:20 51.47580 -0.47295 94 ft 4 kts 271°
2026-05-04 11:20 51.47581 -0.47335 94 ft 4 kts 271°
2026-05-04 11:20 51.47581 -0.47382 95 ft 6 kts 271°
2026-05-04 11:22 51.47340 -0.47875 91 ft 6 kts 178°
2026-05-04 11:22 51.47233 -0.47873 93 ft 17 kts 180°
2026-05-04 11:23 51.47146 -0.47873 91 ft 3 kts 180°
2026-05-04 11:23 51.47127 -0.47859 95 ft 7 kts 140°
2026-05-04 11:24 51.47123 -0.47728 94 ft 0 kts 89°